Change the Weather History Date:

Saturday, January 19, 2013

  Actual Average Record
Temperature  
Mean Temperature 23 °F 14 °F  
Max Temperature 41 °F 23 °F 50 °F (1947)
Min Temperature 5 °F 5 °F -33 °F (1994)
Degree Days  
Heating Degree Days 42 51  
Month to date heating degree days 873 964  
Since 1 July heating degree days 3900 4140  
Cooling Degree Days 0 0  
Month to date cooling degree days 0 0  
Year to date cooling degree days 0 0  
Moisture  
Dew Point 17 °F    
Average Humidity 74    
Maximum Humidity 92    
Minimum Humidity 56    
Precipitation  
Precipitation T in 0.03 in 0.36 in (1935)
Month to date precipitation 0.28 0.54  
Year to date precipitation 0.28 0.54  
Snow  
Snow T in 0.50 in 4.00 in (1935)
Month to date snowfall 0.6 7.9  
Since 1 July snowfall 22.4 23.7  
Snow Depth T in    
Sea Level Pressure  
Sea Level Pressure 29.81 in    
Wind  
Wind Speed 12 mph (West)    
Max Wind Speed 38 mph    
Max Gust Speed 51 mph    
Visibility 10 miles    
Events      
T = Trace of Precipitation, MM = Missing Value Source: NWS Daily Summary

Daily Weather History Graph

Daily Weather History Graph

Search for Another Location

Airport or City:

Trip Planner

Search our weather history database for the weather conditions in past years. The results will help you decide how hot, cold, wet, or windy it might be!

Date:

Astronomy

Jan. 19, 2013 Rise Set
Actual Time 7:37 AM CST 4:56 PM CST
Civil Twilight 7:05 AM CST 5:28 PM CST
Nautical Twilight 6:29 AM CST 6:04 PM CST
Astronomical Twilight 5:54 AM CST 6:39 PM CST
Moon 11:25 AM CST (1/19) 1:08 AM CST (1/19)
Length of Visible Light 10h 23m
Length of Day
9h 19m
First Quarter, 57% of the Moon is Illuminated
Jan 19
First Quarter
Jan 26
Full
Feb 3
Last Quarter
Feb 10
New
Feb 17
First Quarter

Hourly Weather History & Observations

Time (CST) Temp. Windchill Dew Point Humidity Pressure Visibility Wind Dir Wind Speed Gust Speed Precip Events Conditions
12:56 AM 28.9 °F - 26.1 °F 89% 29.80 in 10.0 mi Calm Calm - N/A   Clear
1:56 AM 28.0 °F - 25.0 °F 88% 29.80 in 10.0 mi Calm Calm - N/A   Partly Cloudy
2:56 AM 27.0 °F - 25.0 °F 92% 29.78 in 10.0 mi Calm Calm - N/A   Overcast
3:56 AM 28.0 °F 22.8 °F 25.0 °F 88% 29.77 in 10.0 mi SSE 4.6 mph - N/A   Partly Cloudy
4:56 AM 28.0 °F - 26.1 °F 92% 29.75 in 10.0 mi Calm Calm - N/A   Overcast
5:56 AM 30.0 °F 22.4 °F 26.1 °F 85% 29.73 in 10.0 mi South 8.1 mph - N/A   Overcast
6:56 AM 30.9 °F 27.5 °F 27.0 °F 85% 29.74 in 10.0 mi WNW 3.5 mph - N/A   Mostly Cloudy
7:56 AM 26.1 °F 21.9 °F 23.0 °F 88% 29.70 in 9.0 mi SSW 3.5 mph - N/A   Clear
8:56 AM 30.9 °F 27.5 °F 28.0 °F 89% 29.71 in 10.0 mi SW 3.5 mph - N/A   Clear
9:56 AM 34.0 °F 27.2 °F 28.9 °F 82% 29.71 in 10.0 mi SW 8.1 mph - N/A   Mostly Cloudy
10:56 AM 36.0 °F 29.0 °F 30.0 °F 79% 29.69 in 10.0 mi WSW 9.2 mph - N/A   Overcast
11:56 AM 39.0 °F 31.0 °F 30.0 °F 70% 29.68 in 10.0 mi West 13.8 mph - N/A   Mostly Cloudy
12:56 PM 37.9 °F 29.2 °F 28.9 °F 70% 29.65 in 10.0 mi West 15.0 mph - N/A   Overcast
1:41 PM 37.4 °F 27.5 °F 28.4 °F 70% 29.66 in 10.0 mi WNW 18.4 mph 25.3 mph N/A   Mostly Cloudy
1:56 PM 36.0 °F 26.3 °F 28.0 °F 73% 29.68 in 10.0 mi West 16.1 mph 26.5 mph N/A   Overcast
2:56 PM 36.0 °F 29.0 °F 28.0 °F 73% 29.69 in 10.0 mi West 9.2 mph - N/A   Overcast
3:37 PM 35.6 °F 27.1 °F 28.4 °F 75% 29.64 in 10.0 mi WSW 12.7 mph - N/A   Overcast
3:46 PM 35.6 °F 25.2 °F 28.4 °F 75% 29.64 in 10.0 mi WSW 18.4 mph 24.2 mph N/A   Overcast
3:56 PM 36.0 °F 25.3 °F 28.0 °F 73% 29.67 in 10.0 mi West 19.6 mph 27.6 mph N/A   Overcast
4:56 PM 28.9 °F 13.0 °F 16.0 °F 58% 29.73 in 10.0 mi WNW 32.2 mph 47.2 mph N/A   Scattered Clouds
5:56 PM 18.0 °F -1.7 °F 5.0 °F 57% 29.85 in 10.0 mi WNW 31.1 mph 43.7 mph N/A   Scattered Clouds
6:56 PM 12.9 °F -4.9 °F 1.0 °F 59% 29.93 in 10.0 mi West 19.6 mph 35.7 mph N/A   Mostly Cloudy
7:56 PM 10.0 °F -11.9 °F -2.0 °F 58% 29.98 in 10.0 mi WNW 28.8 mph 41.4 mph N/A   Mostly Cloudy
8:56 PM 8.1 °F -10.2 °F -2.9 °F 61% 30.04 in 9.0 mi WNW 17.3 mph 29.9 mph N/A   Overcast
9:07 PM 8.6 °F -12.7 °F -4.0 °F 57% 29.99 in 9.0 mi WNW 25.3 mph 34.5 mph N/A   Overcast
9:18 PM 6.8 °F -12.9 °F -4.0 °F 61% 30.01 in 10.0 mi NW 19.6 mph 29.9 mph N/A   Overcast
9:56 PM 6.1 °F -12.2 °F -5.1 °F 60% 30.09 in 10.0 mi NW 16.1 mph 26.5 mph N/A   Overcast
10:48 PM 5.0 °F -16.2 °F -5.8 °F 61% 30.06 in 10.0 mi NW 21.9 mph 26.5 mph N/A   Overcast
10:56 PM 5.0 °F -15.2 °F -5.1 °F 63% 30.12 in 10.0 mi WNW 19.6 mph 26.5 mph N/A   Mostly Cloudy
11:56 PM 5.0 °F -12.3 °F -4.0 °F 66% 30.14 in 10.0 mi WNW 13.8 mph 23.0 mph N/A   Mostly Cloudy